(30781) = 1988 CR2 = 1999 CL39 = 2000 LF17

Discovered at La Silla on 1988-02-11 by E. W. Elst.

Orbit

Orbit type: Main Belt

Note: WebGL enabled browser required.

epoch2024-03-31.0
epoch JD2460400.5
perihelion date2022-11-14.90551
perihelion JD2459898.40551
argument of perihelion (°)247.60369
ascending node (°)114.97977
inclination (°)6.51978
eccentricity0.1247535
perihelion distance (AU)2.0500566
Tisserand w.r.t. Jupiter3.5
ΔV w.r.t. Earth (km/sec)9.1
semimajor axis (AU)2.3422620
mean anomaly (°)138.04990
mean daily motion (°/day)0.27494810
aphelion distance (AU)2.634
period (years)3.58
P-vector [x]0.99356349
P-vector [y]0.08079771
P-vector [z]-0.07939340
Q-vector [x]-0.04730829
Q-vector [y]0.93280360
Q-vector [z]0.35726652
absolute magnitude14.56
phase slope0.15
uncertainty0
referenceMPEC 2024-F28
observations used2540
oppositions21
arc length (days)13185
first opposition used1988
last opposition used2024
residual rms (arc-secs)0.61
perturbers coarse indicatorM-v
perturbers precise indicator003Ek
first observation date used1988-02-11.0
last observation date used2024-03-18.0
computer nameMPCLINUX
JD of orbit computation2456877.736173
perihelion JD uncertainty (days)6.0483E-05
argument of perihelion uncertainty (°)3.2805E-05
ascending node uncertainty (°)2.9455E-05
inclination uncertainty (°)3.4158E-06
eccentricity uncertainty 3.0283E-08
perihelion distance uncertainty (AU)7.2485E-08
Minimum Orbit Intersection Distances (in AU)
for orbit epoch: 2460400.5, reference: E2024-G51
Mercury1.67954
Venus1.32484
Earth1.05708
Mars0.66597
Jupiter2.80013
Saturn6.64818
Uranus15.8259
Neptune27.6932

Observations

2561 total observations over interval: 1988 02 11.17014 – 2024 03 18.353201
These data are available for download (format description).

Date (UT) J2000 RA J2000 Dec Magn Location Ref
1988 02 11.17014 07 54 30.02 +22 50 15.3 18.5   809 – European Southern Observatory, La Silla MPC 12919
1988 02 15.10764 07 51 33.05 +23 06 21.3 19.5   809 – European Southern Observatory, La Silla MPC 13026
1988 02 16.16181 07 50 49.59 +23 10 21.3 19.5   809 – European Southern Observatory, La Silla MPC 13268
1988 02 16.17222 07 50 49.14 +23 10 23.1   809 – European Southern Observatory, La Silla MPC 13268
1988 02 16.18264 07 50 48.67 +23 10 25.8   809 – European Southern Observatory, La Silla MPC 13268
1988 02 17.10556 07 50 12.66 +23 13 48.9 18.0   809 – European Southern Observatory, La Silla MPC 13026
1988 02 17.11597 07 50 12.21 +23 13 51.1   809 – European Southern Observatory, La Silla MPC 13026
1988 02 17.12639 07 50 11.76 +23 13 54.5   809 – European Southern Observatory, La Silla MPC 13026
1988 02 21.12535 07 47 52.73 +23 27 15.1 19.5   809 – European Southern Observatory, La Silla MPC 13137
1988 02 21.14271 07 47 52.17 +23 27 18.6   809 – European Southern Observatory, La Silla MPC 13137
1988 02 21.16007 07 47 51.55 +23 27 22.8   809 – European Southern Observatory, La Silla MPC 13137
1988 02 23.11493 07 46 54.71 +23 33 10.5 19.5   809 – European Southern Observatory, La Silla MPC 13268
1988 02 23.13229 07 46 54.14 +23 33 13.9   809 – European Southern Observatory, La Silla MPC 13268
1988 02 23.14965 07 46 53.58 +23 33 17.1   809 – European Southern Observatory, La Silla MPC 13268
1997 09 28.56028 23 55 41.71 -12 48 53.0 17.5 V 566 – Haleakala-NEAT/GEODSS MPS 16342
1997 09 28.56985 23 55 41.24 -12 48 56.8 17.6 V 566 – Haleakala-NEAT/GEODSS MPS 16342
1997 09 28.58076 23 55 40.64 -12 49 00.3 17.7 V 566 – Haleakala-NEAT/GEODSS MPS 16342
1999 02 10.31456 10 15 56.44 +16 38 34.7 18.3   704 – Lincoln Laboratory ETS, New Mexico MPS 3922
1999 02 10.33570 10 15 55.24 +16 38 44.3   704 – Lincoln Laboratory ETS, New Mexico MPS 3922
1999 02 10.35669 10 15 54.01 +16 38 54.3 18.6   704 – Lincoln Laboratory ETS, New Mexico MPS 3922
1999 02 10.37763 10 15 52.81 +16 39 04.2   704 – Lincoln Laboratory ETS, New Mexico MPS 3922
1999 02 10.39872 10 15 51.59 +16 39 13.4 19.7   704 – Lincoln Laboratory ETS, New Mexico MPS 3922
1999 02 13.35702 10 13 02.43 +17 02 29.2 18.3   704 – Lincoln Laboratory ETS, New Mexico MPS 3922
1999 02 13.37097 10 13 01.67 +17 02 34.3 18.5   704 – Lincoln Laboratory ETS, New Mexico MPS 3922
1999 02 13.38498 10 13 00.72 +17 02 43.0 18.5   704 – Lincoln Laboratory ETS, New Mexico MPS 3922
1999 02 13.39895 10 12 59.92 +17 02 48.4 18.7   704 – Lincoln Laboratory ETS, New Mexico MPS 3922
1999 02 13.41296 10 12 59.03 +17 02 55.6 18.9   704 – Lincoln Laboratory ETS, New Mexico MPS 3922
2000 05 27.38131 17 14 48.90 -15 37 35.4 17.6   704 – Lincoln Laboratory ETS, New Mexico MPS 17116
2000 05 27.39512 17 14 48.04 -15 37 35.2 17.5   704 – Lincoln Laboratory ETS, New Mexico MPS 17116
2000 05 27.40863 17 14 47.23 -15 37 36.0 17.2   704 – Lincoln Laboratory ETS, New Mexico MPS 17116
2000 05 27.42210 17 14 46.47 -15 37 35.7 17.6   704 – Lincoln Laboratory ETS, New Mexico MPS 17116
2000 06 05.31511 17 05 47.65 -15 40 41.8 16.6   704 – Lincoln Laboratory ETS, New Mexico MPS 16034
2000 06 05.32854 17 05 46.74 -15 40 42.5 16.5   704 – Lincoln Laboratory ETS, New Mexico MPS 16034
2000 06 05.34196 17 05 45.92 -15 40 41.7 16.8   704 – Lincoln Laboratory ETS, New Mexico MPS 16034
2000 06 05.35535 17 05 45.05 -15 40 42.8 17.2   704 – Lincoln Laboratory ETS, New Mexico MPS 16034
2000 06 10.23050 17 00 36.29 -15 44 30.2 17.4   704 – Lincoln Laboratory ETS, New Mexico MPS 16034
2000 06 10.25597 17 00 34.66 -15 44 31.7 17.3   704 – Lincoln Laboratory ETS, New Mexico MPS 16034
2000 06 10.26871 17 00 33.76 -15 44 33.0 18.0   704 – Lincoln Laboratory ETS, New Mexico MPS 16034
2000 06 20.47221 16 50 05.45 -15 57 39.4 18.1   608 – Haleakala-AMOS MPS 17116
2000 06 20.48310 16 50 04.76 -15 57 40.7 18.4   608 – Haleakala-AMOS MPS 17116
2000 06 20.49417 16 50 04.13 -15 57 41.7 18.5   608 – Haleakala-AMOS MPS 17116
2000 06 24.24889 16 46 31.85 -16 04 24.2 17.5   704 – Lincoln Laboratory ETS, New Mexico MPS 17116
2000 06 24.26163 16 46 31.06 -16 04 25.3 17.9   704 – Lincoln Laboratory ETS, New Mexico MPS 17116
2000 06 24.27493 16 46 30.37 -16 04 26.1 18.1   704 – Lincoln Laboratory ETS, New Mexico MPS 17116
2000 06 24.28762 16 46 29.59 -16 04 28.5 18.1   704 – Lincoln Laboratory ETS, New Mexico MPS 17116
2000 06 24.30026 16 46 28.93 -16 04 29.0 18.4   704 – Lincoln Laboratory ETS, New Mexico MPS 17116
2001 08 24.41170 04 33 07.89 +15 11 05.3 17.7 R 699 – Lowell Observatory-LONEOS MPS 33088
2001 08 24.43058 04 33 09.44 +15 11 07.8   699 – Lowell Observatory-LONEOS MPS 33088
2001 08 24.44914 04 33 11.19 +15 11 10.0 18.2   644 – Palomar Mountain/NEAT MPS 33088
2001 08 24.44951 04 33 11.20 +15 11 09.5   699 – Lowell Observatory-LONEOS MPS 33088
2001 08 24.46019 04 33 12.16 +15 11 11.0 18.3   644 – Palomar Mountain/NEAT MPS 33088
2001 08 24.46848 04 33 12.90 +15 11 11.0   699 – Lowell Observatory-LONEOS MPS 33088
2001 08 24.47083 04 33 13.13 +15 11 12.3 18.9   644 – Palomar Mountain/NEAT MPS 33088
2001 09 17.41592 05 04 18.08 +15 26 45.6 18.8   704 – Lincoln Laboratory ETS, New Mexico MPS 35294
2001 09 17.42999 05 04 18.96 +15 26 45.0 18.8   704 – Lincoln Laboratory ETS, New Mexico MPS 35294
2001 09 17.44434 05 04 19.85 +15 26 45.0 18.5   644 – Palomar Mountain/NEAT MPS 35294
2001 09 17.44446 05 04 19.84 +15 26 44.8 18.8   704 – Lincoln Laboratory ETS, New Mexico MPS 35294
2001 09 17.45526 05 04 20.53 +15 26 44.7 18.3   644 – Palomar Mountain/NEAT MPS 35294
2001 09 17.45851 05 04 20.73 +15 26 44.6 18.9   704 – Lincoln Laboratory ETS, New Mexico MPS 35294
2001 09 17.47158 05 04 21.53 +15 26 44.6 18.2   644 – Palomar Mountain/NEAT MPS 35294
2001 09 17.47256 05 04 21.60 +15 26 44.4 18.8   704 – Lincoln Laboratory ETS, New Mexico MPS 35294
2001 11 09.36686 05 18 24.46 +14 37 35.3 18.2   704 – Lincoln Laboratory ETS, New Mexico MPS 40092
2001 11 09.38097 05 18 23.94 +14 37 35.0 18.5   704 – Lincoln Laboratory ETS, New Mexico MPS 40092
2001 11 09.39678 05 18 23.30 +14 37 34.6 18.4   704 – Lincoln Laboratory ETS, New Mexico MPS 40092
2001 11 09.41091 05 18 22.71 +14 37 34.3 18.4   704 – Lincoln Laboratory ETS, New Mexico MPS 40092
2001 11 09.42533 05 18 22.06 +14 37 33.0 18.4   704 – Lincoln Laboratory ETS, New Mexico MPS 40092
2001 11 17.35741 05 12 20.00 +14 34 28.6 17.2   704 – Lincoln Laboratory ETS, New Mexico MPS 41541
2001 11 17.37190 05 12 19.24 +14 34 28.4 17.7   704 – Lincoln Laboratory ETS, New Mexico MPS 41541
2001 11 17.38670 05 12 18.46 +14 34 28.1 18.4   704 – Lincoln Laboratory ETS, New Mexico MPS 41541
2001 11 17.40098 05 12 17.58 +14 34 28.1 18.5   704 – Lincoln Laboratory ETS, New Mexico MPS 41541
2001 11 17.41526 05 12 16.86 +14 34 28.1 18.2   704 – Lincoln Laboratory ETS, New Mexico MPS 41541
2001 11 20.29808 05 09 39.57 +14 34 18.8 17.7   704 – Lincoln Laboratory ETS, New Mexico MPS 41541
2001 11 20.31262 05 09 38.73 +14 34 19.0 18.1   704 – Lincoln Laboratory ETS, New Mexico MPS 41541
2001 11 20.32864 05 09 37.79 +14 34 19.0 17.8   704 – Lincoln Laboratory ETS, New Mexico MPS 41541
2001 11 20.34323 05 09 36.92 +14 34 19.4 17.7   704 – Lincoln Laboratory ETS, New Mexico MPS 41541
2001 11 20.35830 05 09 36.02 +14 34 19.2 17.4   704 – Lincoln Laboratory ETS, New Mexico MPS 41541
2001 11 24.28892 05 05 43.80 +14 35 01.8 17.7   704 – Lincoln Laboratory ETS, New Mexico MPS 41541
2001 11 24.30454 05 05 42.83 +14 35 00.4 18.9   704 – Lincoln Laboratory ETS, New Mexico MPS 41541
2001 11 24.32022 05 05 41.80 +14 35 02.9 18.1   704 – Lincoln Laboratory ETS, New Mexico MPS 41541
2001 11 24.33459 05 05 40.90 +14 35 03.1 17.4   704 – Lincoln Laboratory ETS, New Mexico MPS 41541
2001 11 24.34935 05 05 39.96 +14 35 03.2 17.6   704 – Lincoln Laboratory ETS, New Mexico MPS 41541
2001 11 25.30604 05 04 40.95 +14 35 24.2 17.6   704 – Lincoln Laboratory ETS, New Mexico MPS 41541
2001 11 25.32054 05 04 40.00 +14 35 25.0 17.5   704 – Lincoln Laboratory ETS, New Mexico MPS 41541
2001 11 25.33623 05 04 38.99 +14 35 25.2 17.3   704 – Lincoln Laboratory ETS, New Mexico MPS 41541
